This demonstration page uses our WeatherBlox Daily Observations layout. Learn more.

Left ArrowRight Arrow

Hourly Observations for October 19, 2021

Temp ( °F °C ) Dew Point ( °F °C ) Humidity (%) Winds ( mph kmh ) Pressure ( in mb ) Visibility ( mi km ) Precip ( " mm )
12:54 am 00:54 Clear 57 13.9 41 5 55 55 S 12 19 29.89 1012 10 16 N/A
1:54 am 01:54 Clear 56 13.3 42 5.6 60 60 S 12 19 29.89 1012 10 16 N/A
2:54 am 02:54 Clear 58 14.4 42 5.6 56 56 SSE 14 22 29.87 1012 10 16 N/A
3:54 am 03:54 Clear 57 13.9 42 5.6 58 58 SSE 12 19 29.85 1011 10 16 N/A
4:54 am 04:54 Clear 56 13.3 42 5.6 60 60 S 13 20 29.85 1011 10 16 N/A
5:54 am 05:54 Clear 56 13.3 42 5.6 60 60 SSE 12 19 29.85 1011 10 16 N/A
6:54 am 06:54 Clear 57 13.9 43 6.1 60 60 S 14 22 29.85 1011 10 16 N/A
7:54 am 07:54 Sunny 56 13.3 43 6.1 62 62 S 13 20 29.85 1011 10 16 N/A
8:54 am 08:54 Sunny 58 14.4 44 6.7 60 60 S 14 22 29.86 1011 10 16 N/A
9:54 am 09:54 Sunny 62 16.7 45 7.2 54 54 S 16 26 29.87 1011 10 16 N/A
10:54 am 10:54 Sunny 66 18.9 46 7.8 49 49 S 17 28 29.86 1011 10 16 N/A
11:54 am 11:54 Sunny 70 21.1 48 8.9 46 46 S 16 26 29.84 1011 10 16 N/A
12:54 pm 12:54 Sunny 74 23.3 49 9.4 41 41 SSE 14 22 29.83 1010 10 16 N/A
1:54 pm 13:54 Sunny 76 24.4 50 10 40 40 SSE 18 30 29.80 1009 10 16 N/A
2:54 pm 14:54 Sunny 78 25.6 50 10 37 37 S 17 28 29.78 1008 10 16 N/A
3:54 pm 15:54 Sunny 79 26.1 51 10.6 38 38 S 17 28 29.76 1008 10 16 N/A
4:54 pm 16:54 Sunny 79 26.1 52 11.1 39 39 S 21 33 29.76 1008 10 16 N/A
5:54 pm 17:54 Sunny 77 25 52 11.1 42 42 SSE 22 35 29.77 1008 10 16 N/A
6:54 pm 18:54 Clear 73 22.8 53 11.7 50 50 SSE 15 24 29.77 1008 10 16 N/A
7:54 pm 19:54 Clear 71 21.7 53 11.7 53 53 SSE 15 24 29.80 1009 10 16 N/A
8:54 pm 20:54 Clear 69 20.6 53 11.7 57 57 SSE 13 20 29.81 1009 10 16 N/A
9:54 pm 21:54 Clear 65 18.3 53 11.7 66 66 SSE 8 13 29.83 1010 10 16 N/A
10:54 pm 22:54 Clear 64 17.8 53 11.7 68 68 S 7 11 29.84 1011 10 16 N/A
11:54 pm 23:54 Clear 60 15.6 53 11.7 78 78 S 8 13 29.85 1011 10 16 N/A

Powered by AerisWeather